{"data":{"norad_id":59415,"epoch":"2026-05-24T23:24:18.728928Z","epoch_age_seconds":80250,"freshness":"FRESH","line1":"1 59415U 24064T   26144.97521677  .00004584  00000+0  17597-3 0  9993","line2":"2 59415  43.0010 345.2654 0001334 277.5590  82.5110 15.27586489120891","mean_motion":15.27586489,"eccentricity":0.0001334,"inclination_deg":43.001,"raan_deg":345.2654,"arg_perigee_deg":277.559,"mean_anomaly_deg":82.511,"bstar":0.00017597,"rev_number":12089,"period_min":94.266348280068,"perigee_km":482.11438607482,"apogee_km":483.94494534123,"semimajor_km":6861.166665708,"source":"CELESTRAK","updated_at":"2026-05-25T13:38:18.942242Z"}}